M I D A S
Marine Information and Data Acquisition System
Tripno 2176 of the Zeeleeuw from 2011-07-07 06:17:24 to 2011-07-07 14:18:31
Back to CruiseResearch ActivitiesStationsMapUnderway DataData graphs

EquipmentUnitsComments
TimeDGPSUTC
LatitudeDGPSDM.mWGS84
LongitudeDGPSDM.mWGS84
SpeedMeteo Stationm/sRelative wind speed
DirectionMeteo StationdegRelative wind direction
TemperatureMeteo Stationdeg CelciusAir temperature
PressureMeteo StationPaAtmospheric pressure
HumidityMeteo Station%Relative humidity
Missing or incorrect values are displayed as -999
Metereological data collected by the RV Zeeleeuw from 2011-07-07 06:18:47 to 2011-07-07 14:28:43
Time Latitude Longitude Speed Direction Temperature Pressure Humidity
2011-07-07 06:19 51°13.654 2°55.941 2.3 18 14.8 100690 42
2011-07-07 06:20 51°13.681 2°55.827 2.8 30 14.8 100690 41
2011-07-07 06:21 51°13.688 2°55.752 3.6 40 14.8 100690 42
2011-07-07 06:22 51°13.689 2°55.725 -999 36 14.8 100690 41
2011-07-07 06:23 51°13.714 2°55.725 -999 39 14.8 100700 41
2011-07-07 06:24 51°13.749 2°55.698 -999 38 14.9 100700 41
2011-07-07 06:25 51°13.795 2°55.659 -999 270 14.9 100700 41
2011-07-07 06:26 51°13.849 2°55.632 1.4 38 14.9 100700 40
2011-07-07 06:27 51°13.891 2°55.632 1.3 32 14.9 100700 41
2011-07-07 06:28 51°13.924 2°55.641 1.9 32 15 100700 40
2011-07-07 06:29 51°13.949 2°55.646 1.6 31 15.1 100700 41
2011-07-07 06:30 51°13.951 2°55.646 4 32 15.1 100700 41
2011-07-07 06:31 51°13.939 2°55.646 0.6 36 15.1 100700 41
2011-07-07 06:32 51°13.932 2°55.648 -999 36 15.2 100700 41
2011-07-07 06:33 51°13.93 2°55.65 -999 36 15.2 100700 41
2011-07-07 06:34 51°13.939 2°55.644 -999 36 15.2 100700 41
2011-07-07 06:35 51°14.021 2°55.559 -999 265 15.2 100700 41
2011-07-07 06:36 51°14.154 2°55.415 -999 242 15.2 100700 41
2011-07-07 06:37 51°14.29 2°55.28 -999 251 15.2 100700 41
2011-07-07 06:38 51°14.434 2°55.137 -999 35 15.2 100710 40
2011-07-07 06:39 51°14.585 2°54.986 -999 237 15.2 100700 41
2011-07-07 06:40 51°14.743 2°54.823 -999 244 15.2 100700 41
2011-07-07 06:41 51°14.911 2°54.642 -999 235 15.2 100710 41
2011-07-07 06:42 51°15.113 2°54.519 -999 238 15.2 100710 39
2011-07-07 06:43 51°15.335 2°54.494 1.9 244 15.3 100710 41
2011-07-07 06:44 51°15.556 2°54.465 1.6 262 15.3 100700 41
2011-07-07 06:45 51°15.77 2°54.544 0.1 28 15.3 100710 41
2011-07-07 06:46 51°15.946 2°54.757 6.7 11 15.4 100700 41
2011-07-07 06:47 51°16.094 2°55.033 4.8 8 15.3 100710 41
2011-07-07 06:48 51°16.238 2°55.299 5.3 7 15.3 100700 41
2011-07-07 06:49 51°16.385 2°55.576 4.4 7 15.3 100700 41
2011-07-07 06:50 51°16.523 2°55.854 3.2 8 15.2 100710 41
2011-07-07 06:51 51°16.663 2°56.123 6.4 12 15.2 100700 41
2011-07-07 06:52 51°16.803 2°56.401 4.6 20 15.3 100700 41
2011-07-07 06:53 51°16.951 2°56.669 4.9 18 15.3 100710 42
2011-07-07 06:54 51°17.089 2°56.95 4.2 16 15.3 100700 41
2011-07-07 06:55 51°17.239 2°57.224 5.3 16 15.3 100710 42
2011-07-07 06:56 51°17.373 2°57.511 5.2 21 15.4 100710 42
2011-07-07 06:57 51°17.517 2°57.776 3.7 24 15.4 100710 42
2011-07-07 06:58 51°17.655 2°58.053 2.6 18 15.4 100710 40
2011-07-07 06:59 51°17.809 2°58.31 4 15 15.4 100710 41
2011-07-07 07:00 51°17.945 2°58.597 4.7 19 15.5 100710 41
2011-07-07 07:01 51°18.094 2°58.853 4.2 17 15.5 100710 41
2011-07-07 07:02 51°18.246 2°59.113 5.1 17 15.6 100710 42
2011-07-07 07:03 51°18.379 2°59.401 5.6 10 15.7 100710 41
2011-07-07 07:04 51°18.523 2°59.668 3 8 15.7 100710 42
2011-07-07 07:05 51°18.661 2°59.945 4 13 15.7 100710 40
2011-07-07 07:06 51°18.824 3°0.137 3.5 248 15.8 100710 41
2011-07-07 07:07 51°18.959 2°59.952 10.1 38 15.9 100690 42
2011-07-07 07:08 51°18.87 2°59.712 11.8 318 16 100670 42
2011-07-07 07:09 51°18.768 2°59.446 12.9 319 16 100670 41
2011-07-07 07:10 51°18.663 2°59.185 11.7 319 16 100670 41
2011-07-07 07:11 51°18.548 2°58.928 6.6 36 16 100670 40
2011-07-07 07:12 51°18.449 2°58.659 14.2 316 16 100670 41
2011-07-07 07:13 51°18.347 2°58.399 13.2 322 16 100670 41
2011-07-07 07:14 51°18.227 2°58.153 14.5 320 16.1 100670 39
2011-07-07 07:15 51°18.123 2°57.888 15.1 321 16.1 100670 40
2011-07-07 07:16 51°18.004 2°57.637 12.5 320 16.1 100670 40
2011-07-07 07:17 51°17.897 2°57.377 14.8 321 16.1 100660 40
2011-07-07 07:18 51°17.782 2°57.122 16.9 325 16.2 100670 41
2011-07-07 07:19 51°17.668 2°56.869 6.8 320 16.2 100670 39
2011-07-07 07:20 51°17.538 2°56.628 6.9 320 16.2 100670 40
2011-07-07 07:21 51°17.422 2°56.364 11.7 323 16.2 100660 40
2011-07-07 07:22 51°17.294 2°56.12 10.9 324 16.1 100670 39
2011-07-07 07:23 51°17.179 2°55.855 12.6 320 16.1 100670 40
2011-07-07 07:24 51°17.049 2°55.613 13.7 321 16.1 100670 41
2011-07-07 07:25 51°16.93 2°55.342 7.4 320 16.1 100670 40
2011-07-07 07:26 51°16.803 2°55.098 7.8 320 16.1 100670 41
2011-07-07 07:27 51°16.682 2°54.831 16.7 322 16.1 100670 42
2011-07-07 07:28 51°16.555 2°54.585 7.3 323 16.1 100670 41
2011-07-07 07:29 51°16.428 2°54.332 7.7 316 16 100670 40
2011-07-07 07:30 51°16.304 2°54.075 6.7 325 15.9 100660 39
2011-07-07 07:31 51°16.178 2°53.811 7.5 322 15.9 100670 41
2011-07-07 07:32 51°16.053 2°53.554 11.8 319 15.9 100670 41
2011-07-07 07:33 51°15.932 2°53.297 7 323 15.9 100670 41
2011-07-07 07:34 51°15.81 2°53.034 3.1 320 15.9 100670 41
2011-07-07 07:35 51°15.678 2°52.781 6.8 323 15.8 100670 41
2011-07-07 07:36 51°15.565 2°52.498 6.9 320 15.9 100670 42
2011-07-07 07:37 51°15.453 2°52.229 7.3 319 15.8 100660 41
2011-07-07 07:38 51°15.349 2°51.937 10.3 321 15.8 100660 42
2011-07-07 07:39 51°15.241 2°51.661 12.8 319 15.9 100660 42
2011-07-07 07:40 51°15.127 2°51.384 14.4 318 15.9 100670 42
2011-07-07 07:41 51°15.005 2°51.117 13.4 320 16 100680 42
2011-07-07 07:42 51°14.881 2°50.843 7.1 318 15.9 100670 41
2011-07-07 07:43 51°14.76 2°50.576 6 326 15.9 100670 40
2011-07-07 07:44 51°14.634 2°50.318 10.4 321 16 100670 43
2011-07-07 07:45 51°14.508 2°50.055 6.8 323 16 100670 42
2011-07-07 07:46 51°14.385 2°49.787 12.9 321 15.9 100670 41
2011-07-07 07:47 51°14.261 2°49.522 6.1 322 16 100670 42
2011-07-07 07:48 51°14.129 2°49.265 13.3 320 16 100670 41
2011-07-07 07:49 51°14.037 2°48.972 6.2 26 16 100670 41
2011-07-07 07:50 51°14.067 2°48.645 9.8 20 15.9 100670 40
2011-07-07 07:51 51°14.239 2°48.577 3.5 24 16 100710 40
2011-07-07 07:52 51°14.333 2°48.844 3.8 27 16.1 100700 42
2011-07-07 07:53 51°14.504 2°49.007 2.6 30 16.1 100700 41
2011-07-07 07:54 51°14.67 2°49.209 -999 28 16 100710 38
2011-07-07 07:55 51°14.841 2°49.404 0.2 42 16.1 100700 41
2011-07-07 07:56 51°15.041 2°49.496 -999 263 16.2 100700 41
2011-07-07 07:57 51°15.248 2°49.564 -999 25 16.2 100700 40
2011-07-07 07:58 51°15.455 2°49.636 0.2 30 16.3 100690 40
2011-07-07 07:59 51°15.661 2°49.729 -999 25 16.3 100690 40
2011-07-07 08:00 51°15.862 2°49.809 0.1 25 16.5 100690 41
2011-07-07 08:01 51°16.068 2°49.879 0.1 40 16.7 100690 40
2011-07-07 08:02 51°16.272 2°49.959 0.1 270 16.7 100680 38
2011-07-07 08:03 51°16.48 2°50.02 -999 250 16.8 100680 40
2011-07-07 08:04 51°16.685 2°50.104 -999 269 16.9 100680 40
2011-07-07 08:05 51°16.894 2°50.165 -999 26 17 100680 40
2011-07-07 08:06 51°17.101 2°50.227 -999 24 16.9 100680 39
2011-07-07 08:07 51°17.307 2°50.299 -999 25 16.9 100680 39
2011-07-07 08:08 51°17.513 2°50.381 -999 24 16.8 100680 39
2011-07-07 08:09 51°17.722 2°50.458 -999 24 16.7 100680 39
2011-07-07 08:10 51°17.932 2°50.512 -999 24 16.7 100670 39
2011-07-07 08:11 51°18.141 2°50.577 -999 24 16.7 100670 40
2011-07-07 08:12 51°18.349 2°50.652 1.4 31 16.6 100670 40
2011-07-07 08:13 51°18.56 2°50.708 0.9 29 16.6 100670 38
2011-07-07 08:14 51°18.771 2°50.782 -999 25 16.5 100670 39
2011-07-07 08:15 51°18.975 2°50.856 -999 24 16.6 100680 40
2011-07-07 08:16 51°19.187 2°50.909 -999 25 16.6 100670 40
2011-07-07 08:17 51°19.396 2°50.976 -999 25 16.6 100670 41
2011-07-07 08:18 51°19.604 2°51.045 -999 25 16.6 100680 39
2011-07-07 08:19 51°19.813 2°51.097 -999 25 16.6 100680 40
2011-07-07 08:20 51°20.022 2°51.167 -999 29 16.7 100680 41
2011-07-07 08:21 51°20.232 2°51.222 0.4 26 16.8 100670 41
2011-07-07 08:22 51°20.442 2°51.275 -999 25 16.9 100680 41
2011-07-07 08:23 51°20.648 2°51.344 -999 266 17 100670 41
2011-07-07 08:24 51°20.853 2°51.41 1.8 29 17 100680 40
2011-07-07 08:25 51°21.063 2°51.448 0.4 15 17 100670 41
2011-07-07 08:26 51°21.273 2°51.504 0.1 270 17 100680 40
2011-07-07 08:27 51°21.485 2°51.556 2.4 29 17 100670 41
2011-07-07 08:28 51°21.697 2°51.618 0.1 25 17 100670 41
2011-07-07 08:29 51°21.907 2°51.685 1.6 24 17.1 100670 42
2011-07-07 08:30 51°22.122 2°51.731 0.1 25 17.1 100670 40
2011-07-07 08:31 51°22.332 2°51.791 -999 22 17.1 100670 41
2011-07-07 08:32 51°22.548 2°51.856 2.4 19 17.1 100680 40
2011-07-07 08:33 51°22.759 2°51.911 -999 27 17 100670 40
2011-07-07 08:34 51°22.975 2°51.967 0.6 26 17.1 100670 40
2011-07-07 08:35 51°23.189 2°52.041 1.4 27 17.1 100670 40
2011-07-07 08:36 51°23.405 2°52.107 -999 269 17 100680 40
2011-07-07 08:37 51°23.619 2°52.163 1.4 28 17.1 100680 41
2011-07-07 08:38 51°23.831 2°52.226 0.4 263 17 100690 41
2011-07-07 08:39 51°24.044 2°52.273 0.1 264 17 100690 41
2011-07-07 08:40 51°24.256 2°52.331 -999 270 17 100690 41
2011-07-07 08:41 51°24.473 2°52.388 -999 265 16.9 100680 41
2011-07-07 08:42 51°24.681 2°52.45 0.3 261 16.9 100690 41
2011-07-07 08:43 51°24.893 2°52.497 2.8 260 16.9 100690 42
2011-07-07 08:44 51°25.105 2°52.536 2.1 262 16.9 100690 41
2011-07-07 08:45 51°25.313 2°52.599 -999 264 16.9 100690 41
2011-07-07 08:46 51°25.522 2°52.654 -999 268 16.9 100690 41
2011-07-07 08:47 51°25.719 2°52.777 -999 40 16.9 100690 42
2011-07-07 08:48 51°25.848 2°53.026 -999 27 17 100690 41
2011-07-07 08:49 51°25.958 2°53.291 -999 39 16.9 100690 42
2011-07-07 08:50 51°26.048 2°53.392 5.5 37 17 100700 41
2011-07-07 08:51 51°26.115 2°53.372 6 270 16.9 100710 41
2011-07-07 08:52 51°26.153 2°53.334 8.4 261 16.8 100710 41
2011-07-07 08:53 51°26.172 2°53.31 8.4 261 16.9 100700 42
2011-07-07 08:54 51°26.189 2°53.297 8.6 257 17 100700 42
2011-07-07 08:55 51°26.202 2°53.293 5.6 262 17 100700 42
2011-07-07 08:56 51°26.214 2°53.29 5.4 265 17 100700 42
2011-07-07 08:57 51°26.226 2°53.287 6.2 270 17 100700 42
2011-07-07 08:58 51°26.238 2°53.283 8.1 270 16.9 100710 40
2011-07-07 08:59 51°26.25 2°53.279 8.3 270 16.9 100690 42
2011-07-07 09:00 51°26.261 2°53.274 5.8 267 16.8 100700 42
2011-07-07 09:01 51°26.271 2°53.274 6.3 268 16.8 100700 42
2011-07-07 09:02 51°26.281 2°53.276 6.9 267 16.8 100690 43
2011-07-07 09:03 51°26.288 2°53.279 7.1 270 16.8 100700 42
2011-07-07 09:04 51°26.295 2°53.28 9.1 270 16.7 100700 40
2011-07-07 09:05 51°26.302 2°53.28 7.7 37 16.6 100700 42
2011-07-07 09:06 51°26.31 2°53.279 7.9 270 16.6 100700 39
2011-07-07 09:07 51°26.319 2°53.278 7.2 34 16.6 100700 41
2011-07-07 09:08 51°26.327 2°53.275 6 30 16.8 100700 43
2011-07-07 09:09 51°26.337 2°53.27 4.9 270 16.7 100700 42
2011-07-07 09:10 51°26.348 2°53.262 7.7 251 16.7 100700 41
2011-07-07 09:11 51°26.36 2°53.252 6 268 16.8 100690 42
2011-07-07 09:12 51°26.372 2°53.243 4.9 266 16.7 100690 42
2011-07-07 09:13 51°26.384 2°53.233 4.4 267 16.8 100690 42
2011-07-07 09:14 51°26.396 2°53.223 3.6 262 16.9 100690 41
2011-07-07 09:15 51°26.408 2°53.214 6.2 262 16.9 100700 40
2011-07-07 09:16 51°26.42 2°53.207 6.8 263 16.9 100700 40
2011-07-07 09:17 51°26.432 2°53.199 6.3 267 16.9 100700 40
2011-07-07 09:18 51°26.445 2°53.191 6.7 267 16.9 100690 39
2011-07-07 09:19 51°26.457 2°53.181 5.5 266 16.9 100700 41
2011-07-07 09:20 51°26.469 2°53.171 6.1 262 17 100700 42
2011-07-07 09:21 51°26.482 2°53.163 4.2 264 17 100700 41
2011-07-07 09:22 51°26.493 2°53.155 4.7 263 16.9 100700 39
2011-07-07 09:23 51°26.505 2°53.148 6 24 16.9 100700 40
2011-07-07 09:24 51°26.517 2°53.138 6.9 22 16.9 100710 41
2011-07-07 09:25 51°26.53 2°53.127 6 266 17 100710 40
2011-07-07 09:26 51°26.542 2°53.114 5.1 266 16.9 100700 41
2011-07-07 09:27 51°26.57 2°53.085 5.9 25 17 100690 42
2011-07-07 09:28 51°26.615 2°53.075 3 25 16.9 100700 40
2011-07-07 09:29 51°26.656 2°53.091 5.8 28 17 100690 39
2011-07-07 09:30 51°26.693 2°53.124 4.5 45 16.9 100700 39
2011-07-07 09:31 51°26.724 2°53.167 5.4 38 16.9 100700 40
2011-07-07 09:32 51°26.749 2°53.215 5.9 29 16.9 100700 41
2011-07-07 09:33 51°26.765 2°53.264 6.8 31 16.9 100700 41
2011-07-07 09:34 51°26.773 2°53.31 6.6 22 17 100690 41
2011-07-07 09:35 51°26.773 2°53.352 5.9 19 17 100700 42
2011-07-07 09:36 51°26.77 2°53.392 7.3 10 17 100690 41
2011-07-07 09:37 51°26.763 2°53.429 4 5 16.9 100690 41
2011-07-07 09:38 51°26.755 2°53.465 4.9 9 16.9 100690 40
2011-07-07 09:39 51°26.745 2°53.499 6.3 2 16.9 100690 41
2011-07-07 09:40 51°26.732 2°53.532 5.4 6 16.8 100690 41
2011-07-07 09:41 51°26.72 2°53.562 6 3 16.9 100690 42
2011-07-07 09:42 51°26.705 2°53.591 6 2 16.9 100690 41
2011-07-07 09:43 51°26.69 2°53.616 6.2 1 16.9 100700 41
2011-07-07 09:44 51°26.672 2°53.639 5.5 356 16.9 100700 42
2011-07-07 09:45 51°26.653 2°53.658 6.5 1 17 100690 41
2011-07-07 09:46 51°26.631 2°53.673 5.7 353 17 100680 40
2011-07-07 09:47 51°26.608 2°53.684 6.5 350 17 100680 43
2011-07-07 09:48 51°26.585 2°53.693 6.8 346 17 100680 41
2011-07-07 09:49 51°26.562 2°53.699 7.3 355 17 100680 42
2011-07-07 09:50 51°26.549 2°53.699 6.2 355 17.1 100690 42
2011-07-07 09:51 51°26.542 2°53.693 7 358 17.1 100700 42
2011-07-07 09:52 51°26.538 2°53.687 7.4 353 17.1 100690 41
2011-07-07 09:53 51°26.49 2°53.657 8.8 326 17.1 100700 41
2011-07-07 09:54 51°26.393 2°53.508 12 326 17.3 100680 40
2011-07-07 09:55 51°26.259 2°53.333 12.1 326 17.4 100690 41
2011-07-07 09:56 51°26.099 2°53.107 13.5 328 17.6 100680 42
2011-07-07 09:57 51°25.938 2°52.865 15 324 17.6 100680 41
2011-07-07 09:58 51°25.796 2°52.581 14.4 320 17.7 100680 41
2011-07-07 09:59 51°25.653 2°52.301 15.1 324 17.8 100680 42
2011-07-07 10:00 51°25.502 2°52.031 12 328 17.8 100680 42
2011-07-07 10:01 51°25.356 2°51.753 12.5 322 17.8 100670 40
2011-07-07 10:02 51°25.214 2°51.46 11.5 325 17.8 100670 38
2011-07-07 10:03 51°25.072 2°51.184 6.5 325 17.8 100670 40
2011-07-07 10:04 51°24.921 2°50.902 7.9 326 17.9 100680 40
2011-07-07 10:05 51°24.783 2°50.62 8 326 17.8 100670 41
2011-07-07 10:06 51°24.631 2°50.34 7.3 327 17.8 100680 40
2011-07-07 10:07 51°24.491 2°50.054 11.5 326 17.8 100670 40
2011-07-07 10:08 51°24.352 2°49.777 12.8 327 17.8 100680 40
2011-07-07 10:09 51°24.202 2°49.503 16.5 326 17.8 100670 40
2011-07-07 10:10 51°24.059 2°49.212 16.6 325 17.9 100660 39
2011-07-07 10:11 51°23.912 2°48.944 6.8 326 17.8 100660 40
2011-07-07 10:12 51°23.77 2°48.653 15.3 325 17.9 100660 40
2011-07-07 10:13 51°23.622 2°48.386 11.5 324 17.8 100670 40
2011-07-07 10:14 51°23.477 2°48.101 13.8 324 17.9 100660 41
2011-07-07 10:15 51°23.336 2°47.826 6.8 327 17.9 100660 40
2011-07-07 10:16 51°23.186 2°47.547 10.8 323 17.9 100650 40
2011-07-07 10:17 51°23.041 2°47.28 13.8 327 17.9 100660 41
2011-07-07 10:18 51°22.85 2°47.089 15.4 332 17.9 100670 39
2011-07-07 10:19 51°22.649 2°46.953 4.6 330 17.9 100660 39
2011-07-07 10:20 51°22.44 2°46.809 12 333 17.9 100670 40
2011-07-07 10:21 51°22.241 2°46.661 13.9 329 17.9 100670 41
2011-07-07 10:22 51°22.054 2°46.449 14.1 330 18 100660 42
2011-07-07 10:23 51°21.906 2°46.175 13.2 322 18 100660 41
2011-07-07 10:24 51°21.783 2°45.872 6.6 323 18 100650 41
2011-07-07 10:25 51°21.652 2°45.563 11.3 322 18 100660 40
2011-07-07 10:26 51°21.533 2°45.256 6.7 324 18.1 100650 40
2011-07-07 10:27 51°21.414 2°44.934 7.1 323 18 100650 40
2011-07-07 10:28 51°21.287 2°44.627 6.9 322 18.1 100650 40
2011-07-07 10:29 51°21.172 2°44.315 7.5 322 18.2 100650 42
2011-07-07 10:30 51°21.05 2°44 6.8 323 18.1 100640 40
2011-07-07 10:31 51°20.934 2°43.691 12.9 323 18.1 100640 40
2011-07-07 10:32 51°20.812 2°43.373 14.2 324 18.1 100640 40
2011-07-07 10:33 51°20.686 2°43.067 6.1 322 18.1 100650 40
2011-07-07 10:34 51°20.565 2°42.757 5.8 321 18.1 100640 38
2011-07-07 10:35 51°20.445 2°42.439 13.2 322 18.1 100650 40
2011-07-07 10:36 51°20.278 2°42.198 6.1 334 18.1 100660 41
2011-07-07 10:37 51°20.068 2°42.173 12.2 349 17.9 100650 39
2011-07-07 10:38 51°19.884 2°42.316 14.3 353 17.8 100650 40
2011-07-07 10:39 51°19.725 2°42.525 11.1 354 17.8 100650 41
2011-07-07 10:40 51°19.592 2°42.76 10.1 356 17.7 100640 40
2011-07-07 10:41 51°19.448 2°42.986 5.4 355 17.8 100650 41
2011-07-07 10:42 51°19.29 2°43.191 9.9 351 17.8 100650 40
2011-07-07 10:43 51°19.142 2°43.41 10.7 352 17.8 100650 41
2011-07-07 10:44 51°19.031 2°43.678 9.4 358 17.8 100660 40
2011-07-07 10:45 51°18.929 2°43.949 8.8 357 17.8 100670 41
2011-07-07 10:46 51°18.818 2°44.219 9.4 356 17.8 100660 41
2011-07-07 10:47 51°18.701 2°44.475 9.6 1 17.8 100660 41
2011-07-07 10:48 51°18.579 2°44.726 9.3 359 17.9 100670 41
2011-07-07 10:49 51°18.446 2°44.964 9.3 356 17.9 100660 42
2011-07-07 10:50 51°18.293 2°45.18 10.3 355 17.9 100660 41
2011-07-07 10:51 51°18.138 2°45.392 4.9 350 17.9 100650 41
2011-07-07 10:52 51°17.984 2°45.622 10.6 351 17.9 100640 40
2011-07-07 10:53 51°17.85 2°45.833 12.5 352 17.9 100650 40
2011-07-07 10:54 51°17.792 2°45.949 6 33 17.9 100670 40
2011-07-07 10:55 51°17.825 2°46.009 2.3 32 17.9 100680 40
2011-07-07 10:56 51°17.918 2°46.1 0.8 36 18 100690 39
2011-07-07 10:57 51°17.976 2°46.097 6.1 39 18.1 100690 41
2011-07-07 10:58 51°17.997 2°46.061 4.9 266 18.1 100680 41
2011-07-07 10:59 51°17.996 2°46.027 8.1 261 18.1 100690 39
2011-07-07 11:00 51°17.988 2°46.001 7.8 256 18.1 100690 39
2011-07-07 11:01 51°17.978 2°45.979 8 256 18.1 100690 39
2011-07-07 11:02 51°17.968 2°45.965 4.8 263 18.2 100690 39
2011-07-07 11:03 51°17.955 2°45.953 6.4 269 18.2 100690 39
2011-07-07 11:04 51°17.94 2°45.938 6 270 18.2 100690 38
2011-07-07 11:05 51°17.927 2°45.923 6.3 266 18.2 100700 42
2011-07-07 11:06 51°17.914 2°45.909 6.8 269 18.2 100690 41
2011-07-07 11:07 51°17.902 2°45.895 8.5 268 18.2 100680 42
2011-07-07 11:08 51°17.89 2°45.881 4.6 263 18.1 100680 41
2011-07-07 11:09 51°17.878 2°45.868 8.6 269 18 100690 41
2011-07-07 11:10 51°17.865 2°45.853 7.9 265 18 100690 40
2011-07-07 11:11 51°17.853 2°45.84 5.5 266 17.9 100690 40
2011-07-07 11:12 51°17.841 2°45.826 5.8 263 17.9 100690 39
2011-07-07 11:13 51°17.829 2°45.812 6.7 262 17.9 100700 41
2011-07-07 11:14 51°17.818 2°45.797 5.9 264 18 100700 42
2011-07-07 11:15 51°17.807 2°45.783 5.4 265 17.9 100690 40
2011-07-07 11:16 51°17.796 2°45.769 5.3 263 17.9 100700 41
2011-07-07 11:17 51°17.784 2°45.753 4.8 264 18 100690 42
2011-07-07 11:18 51°17.772 2°45.737 5.1 263 18 100690 40
2011-07-07 11:19 51°17.759 2°45.722 5.4 263 18 100690 41
2011-07-07 11:20 51°17.746 2°45.708 4.5 266 17.9 100700 38
2011-07-07 11:21 51°17.735 2°45.694 4.8 263 18 100690 41
2011-07-07 11:22 51°17.723 2°45.679 5.9 261 18 100700 41
2011-07-07 11:23 51°17.712 2°45.665 6 262 18.1 100690 41
2011-07-07 11:24 51°17.7 2°45.65 6.2 266 18.1 100690 41
2011-07-07 11:25 51°17.687 2°45.635 5.6 267 18.1 100690 41
2011-07-07 11:26 51°17.675 2°45.62 5.5 265 18.1 100690 41
2011-07-07 11:27 51°17.662 2°45.604 5.2 264 18 100690 40
2011-07-07 11:28 51°17.651 2°45.581 4.5 262 18 100680 41
2011-07-07 11:29 51°17.714 2°45.475 7.4 258 18.1 100670 41
2011-07-07 11:30 51°17.861 2°45.351 5.9 249 18.2 100670 41
2011-07-07 11:31 51°18.04 2°45.27 4.6 258 18.2 100660 41
2011-07-07 11:32 51°18.225 2°45.216 7 248 18.3 100670 41
2011-07-07 11:33 51°18.358 2°45.202 4.6 35 18.4 100680 42
2011-07-07 11:34 51°18.394 2°45.243 5.2 33 18.3 100680 41
2011-07-07 11:35 51°18.398 2°45.279 6.7 38 18.2 100680 39
2011-07-07 11:36 51°18.393 2°45.312 5.3 35 18.1 100670 39
2011-07-07 11:37 51°18.381 2°45.342 6.2 35 18.1 100670 40
2011-07-07 11:38 51°18.363 2°45.368 7.1 32 18.1 100670 40
2011-07-07 11:39 51°18.34 2°45.393 5.2 27 18.1 100670 40
2011-07-07 11:40 51°18.312 2°45.413 4.9 24 18.3 100660 43
2011-07-07 11:41 51°18.282 2°45.431 6.7 24 18.3 100670 42
2011-07-07 11:42 51°18.252 2°45.448 6 23 18.3 100670 42
2011-07-07 11:43 51°18.225 2°45.468 5.5 27 18.3 100670 40
2011-07-07 11:44 51°18.198 2°45.489 7.2 32 18.3 100670 40
2011-07-07 11:45 51°18.172 2°45.51 5.6 29 18.3 100670 41
2011-07-07 11:46 51°18.146 2°45.531 7.6 27 18.3 100660 42
2011-07-07 11:47 51°18.122 2°45.552 6.4 30 18.3 100660 42
2011-07-07 11:48 51°18.099 2°45.575 6.9 32 18.3 100660 42
2011-07-07 11:49 51°18.077 2°45.6 3.3 35 18.3 100660 44
2011-07-07 11:50 51°18.055 2°45.623 4.8 30 18.3 100660 42
2011-07-07 11:51 51°18.035 2°45.646 5.9 38 18.3 100660 43
2011-07-07 11:52 51°18.012 2°45.669 6.1 30 18.3 100660 42
2011-07-07 11:53 51°17.985 2°45.69 5.9 27 18.2 100660 39
2011-07-07 11:54 51°17.952 2°45.709 5.9 24 18.3 100650 40
2011-07-07 11:55 51°17.921 2°45.731 5.2 37 18.3 100660 41
2011-07-07 11:56 51°17.917 2°45.767 3.7 24 18.3 100660 41
2011-07-07 11:57 51°17.942 2°45.792 4.3 27 18.5 100650 39
2011-07-07 11:58 51°17.987 2°45.842 0.8 21 18.7 100650 41
2011-07-07 11:59 51°18.056 2°45.984 1.5 21 19 100660 39
2011-07-07 12:00 51°18.105 2°46.115 0.7 35 19.1 100650 40
2011-07-07 12:01 51°18.192 2°46.332 0.1 12 19 100650 39
2011-07-07 12:02 51°18.289 2°46.575 1 19 18.9 100650 38
2011-07-07 12:03 51°18.379 2°46.83 1.4 23 18.8 100650 40
2011-07-07 12:04 51°18.474 2°47.081 0.9 29 18.6 100650 40
2011-07-07 12:05 51°18.569 2°47.335 0.1 17 18.6 100650 39
2011-07-07 12:06 51°18.664 2°47.582 0.3 10 18.6 100650 41
2011-07-07 12:07 51°18.764 2°47.838 0.2 21 18.6 100650 41
2011-07-07 12:08 51°18.867 2°48.082 1.1 6 18.6 100660 41
2011-07-07 12:09 51°18.966 2°48.34 1 15 18.5 100660 42
2011-07-07 12:10 51°19.07 2°48.592 0.4 10 18.5 100650 40
2011-07-07 12:11 51°19.172 2°48.842 0.1 -999 18.4 100660 40
2011-07-07 12:12 51°19.273 2°49.091 0.1 21 18.5 100650 41
2011-07-07 12:13 51°19.376 2°49.337 -999 -999 18.5 100650 41
2011-07-07 12:14 51°19.475 2°49.587 1 18 18.5 100650 42
2011-07-07 12:15 51°19.575 2°49.842 -999 17 18.5 100650 41
2011-07-07 12:16 51°19.675 2°50.083 0.1 4 18.4 100650 40
2011-07-07 12:17 51°19.776 2°50.333 0.6 9 18.5 100660 41
2011-07-07 12:18 51°19.874 2°50.586 -999 358 18.5 100650 39
2011-07-07 12:19 51°19.976 2°50.833 -999 3 18.5 100650 40
2011-07-07 12:20 51°20.071 2°51.084 -999 360 18.5 100650 40
2011-07-07 12:21 51°20.166 2°51.335 -999 331 18.5 100650 40
2011-07-07 12:22 51°20.273 2°51.579 0.1 344 18.6 100650 40
2011-07-07 12:23 51°20.373 2°51.828 -999 345 18.7 100650 40
2011-07-07 12:24 51°20.469 2°52.08 0.5 324 18.8 100650 40
2011-07-07 12:25 51°20.571 2°52.331 0.1 340 18.9 100650 40
2011-07-07 12:26 51°20.674 2°52.583 0.1 353 19 100640 38
2011-07-07 12:27 51°20.769 2°52.832 1.1 342 18.9 100640 39
2011-07-07 12:28 51°20.865 2°53.082 1.1 339 18.9 100640 40
2011-07-07 12:29 51°20.964 2°53.337 0.1 324 19 100640 40
2011-07-07 12:30 51°21.07 2°53.575 0.5 335 19.2 100640 41
2011-07-07 12:31 51°21.165 2°53.831 1.5 350 19.2 100640 39
2011-07-07 12:32 51°21.264 2°54.089 0.1 349 19.2 100640 40
2011-07-07 12:33 51°21.366 2°54.347 -999 354 19.2 100640 41
2011-07-07 12:34 51°21.472 2°54.601 2.1 347 19.1 100630 41
2011-07-07 12:35 51°21.572 2°54.848 1.2 348 18.9 100630 41
2011-07-07 12:36 51°21.677 2°55.101 1.9 346 18.9 100640 41
2011-07-07 12:37 51°21.774 2°55.352 0.7 346 18.9 100640 42
2011-07-07 12:38 51°21.886 2°55.593 1.2 329 18.8 100630 41
2011-07-07 12:39 51°22.002 2°55.829 0.2 351 18.9 100630 41
2011-07-07 12:40 51°22.12 2°56.069 0.1 341 19 100630 41
2011-07-07 12:41 51°22.237 2°56.3 0.9 349 19.2 100630 41
2011-07-07 12:42 51°22.323 2°56.459 -999 39 19.3 100630 40
2011-07-07 12:43 51°22.367 2°56.554 2 31 19.4 100630 42
2011-07-07 12:44 51°22.413 2°56.546 5.5 252 19.5 100630 42
2011-07-07 12:45 51°22.42 2°56.505 5.2 255 19.5 100630 40
2011-07-07 12:46 51°22.413 2°56.475 5.6 260 19.5 100630 41
2011-07-07 12:47 51°22.402 2°56.453 3.7 263 19.4 100640 40
2011-07-07 12:48 51°22.389 2°56.435 4.2 38 19.3 100640 42
2011-07-07 12:49 51°22.371 2°56.416 5.3 29 19.1 100630 41
2011-07-07 12:50 51°22.355 2°56.396 6.5 36 19.1 100630 40
2011-07-07 12:51 51°22.343 2°56.378 6.8 22 19.1 100640 39
2011-07-07 12:52 51°22.333 2°56.36 5.5 268 19.2 100640 39
2011-07-07 12:53 51°22.325 2°56.339 6.7 30 19.1 100640 37
2011-07-07 12:54 51°22.318 2°56.318 7.3 267 19.2 100640 38
2011-07-07 12:55 51°22.312 2°56.297 6.6 270 19.3 100640 37
2011-07-07 12:56 51°22.305 2°56.275 4.7 264 19.3 100630 37
2011-07-07 12:57 51°22.298 2°56.253 5.1 265 19.3 100630 37
2011-07-07 12:58 51°22.292 2°56.232 5 262 19.3 100630 37
2011-07-07 12:59 51°22.284 2°56.212 3.9 264 19.2 100630 36
2011-07-07 13:00 51°22.278 2°56.192 5.2 263 19.3 100630 36
2011-07-07 13:01 51°22.27 2°56.171 4.6 263 19.3 100630 36
2011-07-07 13:02 51°22.263 2°56.153 4.5 267 19.3 100630 36
2011-07-07 13:03 51°22.254 2°56.133 4.4 263 19.3 100630 36
2011-07-07 13:04 51°22.247 2°56.112 5.1 264 19.3 100630 37
2011-07-07 13:05 51°22.24 2°56.092 4.9 262 19.3 100630 36
2011-07-07 13:06 51°22.233 2°56.071 6.7 262 19.3 100620 37
2011-07-07 13:07 51°22.227 2°56.052 6.8 249 19.3 100620 38
2011-07-07 13:08 51°22.221 2°56.035 5.4 245 19.2 100620 39
2011-07-07 13:09 51°22.212 2°56.018 5 243 19.1 100620 39
2011-07-07 13:10 51°22.203 2°56.002 5.7 250 19.1 100620 39
2011-07-07 13:11 51°22.192 2°55.986 5.8 251 19.1 100620 39
2011-07-07 13:12 51°22.181 2°55.972 5.8 255 19 100620 38
2011-07-07 13:13 51°22.17 2°55.957 3.4 263 19 100620 39
2011-07-07 13:14 51°22.159 2°55.943 3.5 261 19 100620 38
2011-07-07 13:15 51°22.16 2°55.929 3.8 262 19 100620 40
2011-07-07 13:16 51°22.176 2°55.941 2.5 29 19 100620 40
2011-07-07 13:17 51°22.179 2°55.97 2.8 37 18.8 100620 40
2011-07-07 13:18 51°22.181 2°56.003 3 27 18.8 100620 39
2011-07-07 13:19 51°22.181 2°56.037 3.2 22 18.7 100610 41
2011-07-07 13:20 51°22.178 2°56.075 3.1 24 18.6 100610 41
2011-07-07 13:21 51°22.172 2°56.114 4.5 23 18.5 100610 41
2011-07-07 13:22 51°22.165 2°56.155 3.5 39 18.5 100610 42
2011-07-07 13:23 51°22.154 2°56.197 3 24 18.3 100610 42
2011-07-07 13:24 51°22.141 2°56.24 2.9 41 18.2 100610 41
2011-07-07 13:25 51°22.123 2°56.283 1.4 28 18.1 100610 41
2011-07-07 13:26 51°22.103 2°56.324 3.3 38 18.1 100610 41
2011-07-07 13:27 51°22.078 2°56.365 0.4 21 18 100610 42
2011-07-07 13:28 51°22.047 2°56.402 2.8 26 18.2 100610 43
2011-07-07 13:29 51°22.014 2°56.437 0.1 34 18.3 100610 41
2011-07-07 13:30 51°21.98 2°56.473 3.6 28 18.3 100610 41
2011-07-07 13:31 51°21.942 2°56.506 3.1 38 18.3 100610 42
2011-07-07 13:32 51°21.901 2°56.534 3.2 43 18.2 100610 42
2011-07-07 13:33 51°21.856 2°56.556 3.6 35 18.1 100610 43
2011-07-07 13:34 51°21.807 2°56.568 3.8 33 18.1 100600 42
2011-07-07 13:35 51°21.756 2°56.569 4.1 27 18 100610 42
2011-07-07 13:36 51°21.703 2°56.559 3.9 23 18.1 100610 42
2011-07-07 13:37 51°21.65 2°56.538 4.6 15 18 100610 42
2011-07-07 13:38 51°21.598 2°56.507 5.5 13 18 100610 42
2011-07-07 13:39 51°21.548 2°56.469 5.6 10 18 100610 42
2011-07-07 13:40 51°21.496 2°56.426 4.3 1 18 100620 43
2011-07-07 13:41 51°21.383 2°56.339 9.5 352 17.9 100610 42
2011-07-07 13:42 51°21.206 2°56.204 11.8 352 17.9 100600 41
2011-07-07 13:43 51°21.007 2°56.031 4.7 349 17.9 100580 40
2011-07-07 13:44 51°20.8 2°55.871 9.7 351 17.9 100590 40
2011-07-07 13:45 51°20.605 2°55.701 11 353 17.9 100590 40
2011-07-07 13:46 51°20.413 2°55.512 7.6 349 17.9 100590 40
2011-07-07 13:47 51°20.221 2°55.323 9.7 349 17.9 100580 40
2011-07-07 13:48 51°20.028 2°55.137 10.3 349 17.9 100590 40
2011-07-07 13:49 51°19.83 2°54.954 8.1 348 18 100590 40
2011-07-07 13:50 51°19.64 2°54.761 9.7 351 18 100580 40
2011-07-07 13:51 51°19.446 2°54.579 11.7 353 17.9 100580 40
2011-07-07 13:52 51°19.257 2°54.397 8.5 349 17.9 100580 39
2011-07-07 13:53 51°19.059 2°54.215 9.6 348 17.8 100580 41
2011-07-07 13:54 51°18.867 2°54.029 8.2 349 17.8 100580 41
2011-07-07 13:55 51°18.674 2°53.847 7.1 351 17.7 100570 41
2011-07-07 13:56 51°18.481 2°53.676 7.5 347 17.6 100570 41
2011-07-07 13:57 51°18.288 2°53.479 8.4 347 17.6 100570 40
2011-07-07 13:58 51°18.1 2°53.292 9.4 347 17.6 100590 42
2011-07-07 13:59 51°17.899 2°53.124 8.5 345 17.5 100570 41
2011-07-07 14:00 51°17.711 2°52.95 7.7 349 17.5 100570 41
2011-07-07 14:01 51°17.514 2°52.789 9.1 346 17.5 100570 41
2011-07-07 14:02 51°17.325 2°52.606 7.6 349 17.4 100570 42
2011-07-07 14:03 51°17.119 2°52.593 4.1 355 17.4 100580 42
2011-07-07 14:04 51°16.928 2°52.765 3.6 355 17.4 100590 42
2011-07-07 14:05 51°16.749 2°52.952 3.4 349 17.4 100580 42
2011-07-07 14:06 51°16.556 2°53.125 3.5 356 17.4 100580 43
2011-07-07 14:07 51°16.355 2°53.236 4.7 357 17.4 100580 41
2011-07-07 14:08 51°16.146 2°53.334 4.6 356 17.4 100580 42
2011-07-07 14:09 51°15.945 2°53.441 4 358 17.5 100580 43
2011-07-07 14:10 51°15.747 2°53.548 4.1 355 17.4 100580 41
2011-07-07 14:11 51°15.563 2°53.727 -999 353 17.4 100590 42
2011-07-07 14:12 51°15.395 2°53.935 -999 3 17.4 100590 42
2011-07-07 14:13 51°15.226 2°54.141 -999 4 17.5 100590 42
2011-07-07 14:14 51°15.06 2°54.341 -999 4 17.5 100590 42
2011-07-07 14:15 51°14.886 2°54.543 0.1 11 17.5 100590 43
2011-07-07 14:16 51°14.724 2°54.762 0.2 3 17.5 100590 41
2011-07-07 14:17 51°14.563 2°54.978 2.6 3 17.6 100600 42
2011-07-07 14:18 51°14.39 2°55.159 4.2 14 17.7 100610 43
2011-07-07 14:19 51°14.259 2°55.3 3.3 21 17.7 100610 43
2011-07-07 14:20 51°14.153 2°55.397 4.1 15 17.7 100610 42
2011-07-07 14:21 51°14.044 2°55.476 6 360 17.8 100590 38
2011-07-07 14:22 51°13.919 2°55.565 2 359 18 100590 38
2011-07-07 14:23 51°13.829 2°55.632 3.5 17 18.2 100590 38
2011-07-07 14:24 51°13.759 2°55.714 0.2 33 18.3 100590 39
2011-07-07 14:25 51°13.704 2°55.814 3.3 14 18.4 100590 39
2011-07-07 14:26 51°13.66 2°55.919 2.9 34 18.6 100590 38
2011-07-07 14:27 51°13.639 2°56 2.2 34 18.5 100600 38